Bellingham, Washington, United States (98225)
Lat: 48.76N, Lon: 122.49W
Wx Zone: WAZ503
Local Info
Past Weather Observations for Monday, September 19, 2016

NOTE: This archive is for the closest National Weather Service station to Bellingham. Information may differ from the station used for current weather conditions.

Click here for Long-term Archive

Time Weather Temperature Dewpoint Humidity Pressure Winds Precip Visibility
23:53
Overcast
54°F / 12°C 52°F / 11°C 94% 30.15 in
(1021 mb)
N 3.5 mph
(N 6 kph)
- 9SM
22:53
Overcast
54°F / 12°C 52°F / 11°C 94% 30.15 in
(1021 mb)
N 3.5 mph
(N 6 kph)
- 10SM
21:53
Overcast
54°F / 12°C 52°F / 11°C 94% 30.15 in
(1021 mb)
NNE 5.8 mph
(NNE 9 kph)
0.01 in
(0.25 mm)
10SM
20:53
Overcast
Light Rain
55°F / 13°C 52°F / 11°C 88% 30.15 in
(1021 mb)
N 6.9 mph
(N 11 kph)
0.02 in
(0.51 mm)
9SM
19:53
Overcast
57°F / 14°C 52°F / 11°C 82% 30.12 in
(1020 mb)
Calm - 10SM
18:53
Overcast
59°F / 15°C 52°F / 11°C 77% 30.12 in
(1020 mb)
S 4.6 mph
(S 7 kph)
- 10SM
17:53
Overcast
61°F / 16°C 50°F / 10°C 68% 30.09 in
(1019 mb)
Variable 3.5 mph
(Variable 6 kph)
- 10SM
16:53
Overcast
61°F / 16°C 48°F / 9°C 63% 30.09 in
(1019 mb)
S 5.8 mph
(S 9 kph)
- 10SM
15:53
Overcast
63°F / 17°C 46°F / 8°C 56% 30.09 in
(1019 mb)
SSE 5.8 mph
(SSE 9 kph)
0.00 in
(0.00 mm)
10SM
14:53
Overcast
63°F / 17°C 46°F / 8°C 56% 30.09 in
(1019 mb)
SSE 5.8 mph
(SSE 9 kph)
0.00 in
(0.00 mm)
10SM
13:53
Mostly Cloudy
63°F / 17°C 46°F / 8°C 56% 30.06 in
(1018 mb)
S 9.2 mph
(S 15 kph)
- 10SM
12:53
Clear
63°F / 17°C 48°F / 9°C 59% 30.06 in
(1018 mb)
SSE 10.4 mph
(SSE 17 kph)
- 10SM
11:53
Partly Cloudy
61°F / 16°C 48°F / 9°C 63% 30.06 in
(1018 mb)
Variable 6.9 mph
(Variable 11 kph)
- 10SM
10:53
Overcast
55°F / 13°C 48°F / 9°C 77% 30.06 in
(1018 mb)
S 3.5 mph
(S 6 kph)
0.03 in
(0.76 mm)
10SM
10:00
Overcast
57°F / 14°C 52°F / 11°C 82% 30.06 in
(1018 mb)
S 12.7 mph
(S 20 kph)
- 10SM
09:53
Mostly Cloudy
57°F / 14°C 52°F / 11°C 82% 30.06 in
(1018 mb)
SSE 12.7 mph
(SSE 20 kph)
- 10SM
08:53
Mostly Cloudy
57°F / 14°C 54°F / 12°C 88% 30.04 in
(1017 mb)
SSE 6.9 mph
(SSE 11 kph)
0.02 in
(0.51 mm)
10SM
08:51
Mostly Cloudy
57°F / 14°C 54°F / 12°C 88% 30.04 in
(1017 mb)
SSE 6.9 mph
(SSE 11 kph)
0.02 in
(0.51 mm)
10SM
07:55
Overcast
Light Rain
57°F / 14°C 54°F / 12°C 88% 30.04 in
(1017 mb)
SSE 5.8 mph
(SSE 9 kph)
0.00 in
(0.00 mm)
6SM
07:53
Overcast
Light Rain
57°F / 14°C 54°F / 12°C 88% 30.01 in
(1016 mb)
S 6.9 mph
(S 11 kph)
0.02 in
(0.51 mm)
5SM
06:53
Mostly Cloudy
57°F / 14°C 54°F / 12°C 88% 30.01 in
(1016 mb)
S 6.9 mph
(S 11 kph)
0.01 in
(0.25 mm)
10SM
06:50
Mostly Cloudy
57°F / 14°C 54°F / 12°C 88% 30.01 in
(1016 mb)
S 9.2 mph
(S 15 kph)
0.01 in
(0.25 mm)
10SM
05:58
Overcast
Light Rain
57°F / 14°C 54°F / 12°C 88% 29.98 in
(1015 mb)
SSE 10.4 mph
(SSE 17 kph)
0.01 in
(0.25 mm)
6SM
05:53
Overcast
Heavy Rain
57°F / 14°C 54°F / 12°C 88% 29.98 in
(1015 mb)
SE 13.8 mph
(SE 22 kph)
0.14 in
(3.56 mm)
3SM
04:53
Overcast
59°F / 15°C 52°F / 11°C 77% 30.01 in
(1016 mb)
SSE 10.4 mph
(SSE 17 kph)
- 10SM
03:53
Overcast
59°F / 15°C 54°F / 12°C 82% 30.01 in
(1016 mb)
SSE 8.1 mph
(SSE 13 kph)
0.00 in
(0.00 mm)
10SM
03:27
Overcast
59°F / 15°C 54°F / 12°C 82% 30.01 in
(1016 mb)
S 10.4 mph
(S 17 kph)
0.00 in
(0.00 mm)
10SM
02:53
Overcast
59°F / 15°C 52°F / 11°C 77% 30.01 in
(1016 mb)
SSE 9.2 mph
(SSE 15 kph)
0.01 in
(0.25 mm)
10SM
01:53
Overcast
Light Rain
57°F / 14°C 54°F / 12°C 88% 30.01 in
(1016 mb)
S 10.4 mph
(S 17 kph)
0.00 in
(0.00 mm)
10SM
00:53
Overcast
Light Rain
59°F / 15°C 52°F / 11°C 77% 30.01 in
(1016 mb)
SSE 8.1 mph
(SSE 13 kph)
0.01 in
(0.25 mm)
10SM
Time Weather Temperature Dewpoint Humidity Pressure Winds Precip Visibility


Weather for websites

WeatherForYou.com, LLC is not responsible for any damages or problems caused by this service. Current weather conditions are obtained from the closest station including government and personal stations which may have varying degrees of accuracy. Weather forecasts are derived from the NOAA NDFD. Like all things, this site belongs to Jesus Christ... He just trusts us to maintain it. If you have any questions or comments email webmaster@weatherforyou.com

Copyright © 2016, WeatherForYou.com LLC. All rights reserved.